Weather History for KSMP - October, 2011

Change the Weather History Date:

Tuesday, October 25, 2011

  Actual Average Record
Temperature  
Mean Temperature 35 °F -  
Max Temperature 43 °F 41 °F 57 °F (2005)
Min Temperature 28 °F 31 °F 28 °F (2011)
Degree Days  
Heating Degree Days 30    
Moisture  
Dew Point 28 °F    
Average Humidity 88    
Maximum Humidity 100    
Minimum Humidity 51    
Precipitation  
Precipitation 0.00 in - - ()
Sea Level Pressure  
Sea Level Pressure 30.37 in    
Wind  
Wind Speed 3 mph (SW)    
Max Wind Speed 6 mph    
Max Gust Speed -    
Visibility 6 miles    
Events Fog    
Averages and records for this station are not official NWS values.
T = Trace of Precipitation, MM = Missing Value Source: NWS Daily Summary

Daily Weather History Graph

Daily Weather History Graph

Search for Another Location

Airport or City:

Trip Planner

Search our weather history database for the weather conditions in past years. The results will help you decide how hot, cold, wet, or windy it might be!

Date:

Astronomy

Oct. 25, 2011 Rise Set
Actual Time 7:38 AM PDT 6:00 PM PDT
Civil Twilight 7:06 AM PDT 6:31 PM PDT
Nautical Twilight 6:30 AM PDT 7:07 PM PDT
Astronomical Twilight 5:55 AM PDT 7:42 PM PDT
Moon 6:15 AM PDT (10/25) 5:04 PM PDT (10/25)
Length of Visible Light 11h 24m
Length of Day
10h 22m
Waning Crescent, 2% of the Moon is Illuminated
Oct 25
Waning Crescent
Oct 26
New
Nov 2
First Quarter
Nov 10
Full
Nov 18
Last Quarter

Hourly Weather History & Observations

Time (PDT) Temp. Windchill Dew Point Humidity Pressure Visibility Wind Dir Wind Speed Gust Speed Precip Events Conditions
12:42 AM 30.2 °F 26.7 °F 30.2 °F 100% 30.30 in 1.0 mi West 3.5 mph - N/A   Mist
12:46 AM 30.2 °F - 30.2 °F 100% 30.30 in 3.0 mi Calm Calm - N/A   Mostly Cloudy
12:49 AM 30.2 °F 25.4 °F 30.2 °F 100% 30.30 in 1.8 mi SW 4.6 mph - N/A   Mostly Cloudy
12:56 AM 30.9 °F - 30.0 °F 96% 30.38 in 1.0 mi Calm Calm - N/A   Mostly Cloudy
1:00 AM 30.2 °F 25.4 °F 30.2 °F 100% 30.30 in 2.5 mi WSW 4.6 mph - N/A   Mostly Cloudy
1:07 AM 30.2 °F 25.4 °F 30.2 °F 100% 30.31 in 10.0 mi WSW 4.6 mph - N/A   Mostly Cloudy
1:13 AM 30.2 °F 25.4 °F 30.2 °F 100% 30.31 in 1.8 mi Variable 4.6 mph - N/A   Overcast
1:21 AM 30.2 °F 26.7 °F 30.2 °F 100% 30.31 in 1.2 mi Variable 3.5 mph - N/A   Overcast
1:31 AM 30.2 °F 25.4 °F 30.2 °F 100% 30.31 in 0.8 mi WSW 4.6 mph - N/A   Overcast
1:42 AM 30.2 °F 24.3 °F 30.2 °F 100% 30.31 in 1.0 mi WSW 5.8 mph - N/A   Overcast
1:49 AM 30.2 °F 25.4 °F 30.2 °F 100% 30.31 in 0.8 mi Variable 4.6 mph - N/A   Mist
1:56 AM 30.0 °F 24.1 °F 30.0 °F 100% 30.39 in 0.5 mi WSW 5.8 mph - N/A Fog Light Freezing Fog
2:05 AM 30.2 °F 25.4 °F 30.2 °F 100% 30.31 in 0.2 mi Variable 4.6 mph - N/A Fog Light Freezing Fog
2:18 AM 30.2 °F 25.4 °F 30.2 °F 100% 30.31 in 0.5 mi WSW 4.6 mph - N/A Fog Light Freezing Fog
2:31 AM 30.2 °F 25.4 °F 30.2 °F 100% 30.30 in 0.8 mi WSW 4.6 mph - N/A   Mist
2:52 AM 30.2 °F 26.7 °F 28.4 °F 93% 30.31 in 0.2 mi WSW 3.5 mph - N/A Fog Light Freezing Fog
2:56 AM 30.0 °F 26.5 °F 30.0 °F 100% 30.39 in 0.2 mi WSW 3.5 mph - N/A Fog Light Freezing Fog
3:06 AM 30.2 °F 25.4 °F 30.2 °F 100% 30.31 in 0.5 mi WSW 4.6 mph - N/A Fog Light Freezing Fog
3:56 AM 30.0 °F 25.2 °F 28.9 °F 96% 30.40 in 1.2 mi WSW 4.6 mph - N/A   Overcast
3:58 AM 30.2 °F 26.7 °F 28.4 °F 93% 30.32 in 2.0 mi WSW 3.5 mph - N/A   Mostly Cloudy
4:04 AM 30.2 °F 26.7 °F 28.4 °F 93% 30.31 in 10.0 mi SW 3.5 mph - N/A   Mostly Cloudy
4:13 AM 30.2 °F 25.4 °F 28.4 °F 93% 30.31 in 10.0 mi WSW 4.6 mph - N/A   Partly Cloudy
4:56 AM 28.9 °F 25.2 °F 28.9 °F 100% 30.40 in 10.0 mi WSW 3.5 mph - N/A   Partly Cloudy
5:05 AM 28.4 °F 23.3 °F 28.4 °F 100% 30.31 in 10.0 mi WSW 4.6 mph - N/A   Partly Cloudy
5:20 AM 28.4 °F 23.3 °F 28.4 °F 100% 30.32 in 9.0 mi WSW 4.6 mph - N/A   Mostly Cloudy
5:46 AM 28.4 °F 23.3 °F 28.4 °F 100% 30.32 in 10.0 mi WSW 4.6 mph - N/A   Scattered Clouds
6:56 AM 28.9 °F 25.2 °F 28.9 °F 100% 30.41 in 10.0 mi SW 3.5 mph - N/A   Clear
7:56 AM 30.0 °F 25.2 °F 28.9 °F 96% 30.43 in 10.0 mi SW 4.6 mph - N/A   Clear
8:56 AM 30.0 °F 26.5 °F 30.0 °F 100% 30.44 in 10.0 mi SW 3.5 mph - N/A   Clear
9:56 AM 30.9 °F 27.5 °F 30.9 °F 100% 30.45 in 10.0 mi Variable 3.5 mph - N/A   Clear
10:56 AM 32.0 °F 28.7 °F 32.0 °F 100% 30.46 in 10.0 mi SW 3.5 mph - N/A   Clear
11:56 AM 35.1 °F - 30.9 °F 85% 30.46 in 10.0 mi Calm Calm - N/A   Clear
12:56 PM 39.9 °F - 28.0 °F 63% 30.44 in 10.0 mi Calm Calm - N/A   Clear
1:56 PM 41.0 °F 39.0 °F 25.0 °F 53% 30.43 in 10.0 mi East 3.5 mph - N/A   Clear
2:56 PM 42.1 °F - 25.0 °F 51% 30.43 in 10.0 mi Calm Calm - N/A   Clear
3:56 PM 42.1 °F - 26.1 °F 53% 30.43 in 10.0 mi Calm Calm - N/A   Clear
4:56 PM 42.1 °F - 26.1 °F 53% 30.42 in 10.0 mi Calm Calm - N/A   Clear
5:56 PM 37.9 °F - 23.0 °F 55% 30.43 in 10.0 mi Calm Calm - N/A   Clear
6:56 PM 37.0 °F 34.5 °F 21.9 °F 54% 30.44 in 10.0 mi SSE 3.5 mph - N/A   Clear
7:56 PM 35.1 °F - 23.0 °F 61% 30.44 in 10.0 mi Calm Calm - N/A   Clear
8:56 PM 35.1 °F - 23.0 °F 61% 30.44 in 10.0 mi Calm Calm - N/A   Clear
9:56 PM 34.0 °F - 23.0 °F 64% 30.45 in 10.0 mi Calm Calm - N/A   Clear
10:56 PM 32.0 °F 28.7 °F 25.0 °F 75% 30.45 in 10.0 mi Variable 3.5 mph - N/A   Clear
11:56 PM 32.0 °F - 24.1 °F 73% 30.43 in 10.0 mi Calm Calm - N/A   Clear